Time,TemperatureF,DewpointF,PressureIn,WindDirection,WindDirectionDegrees,WindSpeedMPH,WindSpeedGustMPH,Humidity,HourlyPrecipIn,Conditions,Clouds,dailyrainin,SoftwareType,DateUTC
2013-10-27 00:01:00,37.0,30.1,29.95,West,270,0.0,0.0,76,0.00,,---,0.00,VWS V14.01,2013-10-27 04:01:00,
2013-10-27 00:02:00,37.0,30.1,29.95,West,270,0.0,0.0,76,0.00,,---,0.00,VWS V14.01,2013-10-27 04:02:00,
2013-10-27 00:03:00,37.0,30.1,29.95,West,270,0.0,0.0,76,0.00,,---,0.00,VWS V14.01,2013-10-27 04:03:00,
2013-10-27 00:04:00,37.0,30.1,29.95,West,270,0.0,0.0,76,0.00,,---,0.00,VWS V14.01,2013-10-27 04:04:00,
2013-10-27 00:09:00,37.0,30.1,29.95,West,270,0.0,0.0,76,0.00,,---,0.00,VWS V14.01,2013-10-27 04:09:00,
2013-10-27 00:10:00,37.0,30.1,29.95,NW,315,0.0,0.0,76,0.00,,---,0.00,VWS V14.01,2013-10-27 04:10:00,
2013-10-27 00:11:00,37.0,30.1,29.95,NW,315,0.0,0.0,76,0.00,,---,0.00,VWS V14.01,2013-10-27 04:11:00,
2013-10-27 00:16:00,36.8,30.3,29.95,West,270,0.0,0.0,77,0.00,,---,0.00,VWS V14.01,2013-10-27 04:16:00,
2013-10-27 00:21:00,36.6,30.1,29.96,WSW,248,0.0,0.0,77,0.00,,---,0.00,VWS V14.01,2013-10-27 04:21:00,
2013-10-27 00:26:00,36.6,30.1,29.95,WSW,248,0.0,0.0,77,0.00,,---,0.00,VWS V14.01,2013-10-27 04:26:00,
2013-10-27 00:31:00,36.6,30.1,29.95,WSW,248,0.0,0.0,77,0.00,,---,0.00,VWS V14.01,2013-10-27 04:31:00,
2013-10-27 00:36:00,36.5,30.0,29.95,WSW,248,0.0,0.0,77,0.00,,---,0.00,VWS V14.01,2013-10-27 04:36:00,
2013-10-27 00:41:00,36.5,30.0,29.95,WSW,248,0.0,0.0,77,0.00,,---,0.00,VWS V14.01,2013-10-27 04:41:00,
2013-10-27 00:46:00,36.3,29.8,29.96,WSW,248,0.0,0.0,77,0.00,,---,0.00,VWS V14.01,2013-10-27 04:46:00,
2013-10-27 00:51:00,36.3,29.8,29.96,West,270,0.0,0.0,77,0.00,,---,0.00,VWS V14.01,2013-10-27 04:51:00,
2013-10-27 00:56:00,36.3,30.1,29.96,WSW,248,0.0,0.0,78,0.00,,---,0.00,VWS V14.01,2013-10-27 04:56:00,
2013-10-27 01:01:00,36.1,29.9,29.96,West,270,0.0,0.0,78,0.00,,---,0.00,VWS V14.01,2013-10-27 05:01:00,
2013-10-27 01:06:00,36.1,29.9,29.96,WSW,248,0.0,0.0,78,0.00,,---,0.00,VWS V14.01,2013-10-27 05:06:00,
2013-10-27 01:11:00,36.1,29.9,29.97,WSW,248,0.0,0.0,78,0.00,,---,0.00,VWS V14.01,2013-10-27 05:11:00,
2013-10-27 01:16:00,35.9,29.7,29.97,West,270,0.0,0.0,78,0.00,,---,0.00,VWS V14.01,2013-10-27 05:16:00,
2013-10-27 01:21:00,35.9,29.7,29.97,WSW,248,0.0,0.0,78,0.00,,---,0.00,VWS V14.01,2013-10-27 05:21:00,
2013-10-27 01:26:00,35.7,29.5,29.97,WSW,248,0.0,0.0,78,0.00,,---,0.00,VWS V14.01,2013-10-27 05:26:00,
2013-10-27 01:31:00,35.7,29.5,29.96,WSW,248,0.0,0.0,78,0.00,,---,0.00,VWS V14.01,2013-10-27 05:31:00,
2013-10-27 01:36:00,35.7,29.5,29.96,WSW,248,0.0,0.0,78,0.00,,---,0.00,VWS V14.01,2013-10-27 05:36:00,
2013-10-27 01:41:00,35.4,29.2,29.97,WSW,248,0.0,0.0,78,0.00,,---,0.00,VWS V14.01,2013-10-27 05:41:00,
2013-10-27 01:46:00,35.4,29.2,29.97,WSW,248,0.0,0.0,78,0.00,,---,0.00,VWS V14.01,2013-10-27 05:46:00,
2013-10-27 01:51:00,35.2,29.0,29.97,WSW,248,0.0,0.0,78,0.00,,---,0.00,VWS V14.01,2013-10-27 05:51:00,
2013-10-27 01:56:00,35.2,29.0,29.96,WSW,248,0.0,0.0,78,0.00,,---,0.00,VWS V14.01,2013-10-27 05:56:00,
2013-10-27 02:01:00,34.8,29.0,29.96,WSW,248,0.0,0.0,79,0.00,,---,0.00,VWS V14.01,2013-10-27 06:01:00,
2013-10-27 02:06:00,34.7,28.9,29.96,WSW,248,0.0,0.0,79,0.00,,---,0.00,VWS V14.01,2013-10-27 06:06:00,
2013-10-27 02:11:00,34.5,28.7,29.96,WSW,248,0.0,0.0,79,0.00,,---,0.00,VWS V14.01,2013-10-27 06:11:00,
2013-10-27 02:16:00,34.3,28.8,29.96,WSW,248,0.0,0.0,80,0.00,,---,0.00,VWS V14.01,2013-10-27 06:16:00,
2013-10-27 02:21:00,34.5,29.0,29.96,WSW,248,0.0,0.0,80,0.00,,---,0.00,VWS V14.01,2013-10-27 06:21:00,
2013-10-27 02:26:00,34.5,29.0,29.96,WSW,248,0.0,0.0,80,0.00,,---,0.00,VWS V14.01,2013-10-27 06:26:00,
2013-10-27 02:31:00,34.8,29.3,29.96,West,270,0.0,0.0,80,0.00,,---,0.00,VWS V14.01,2013-10-27 06:31:00,
2013-10-27 02:36:00,34.8,29.3,29.96,West,270,0.0,0.0,80,0.00,,---,0.00,VWS V14.01,2013-10-27 06:36:00,
2013-10-27 02:41:00,35.2,29.7,29.96,West,270,0.0,0.0,80,0.00,,---,0.00,VWS V14.01,2013-10-27 06:41:00,
2013-10-27 02:46:00,35.2,29.7,29.96,West,270,0.0,0.0,80,0.00,,---,0.00,VWS V14.01,2013-10-27 06:46:00,
2013-10-27 02:51:00,35.4,29.9,29.96,WSW,248,0.0,0.0,80,0.00,,---,0.00,VWS V14.01,2013-10-27 06:51:00,
2013-10-27 02:56:00,35.4,29.9,29.96,WSW,248,0.0,0.0,80,0.00,,---,0.00,VWS V14.01,2013-10-27 06:56:00,
2013-10-27 03:02:00,35.4,-4.7,29.95,WSW,248,0.0,0.0,80,0.00,,---,0.00,VWS V14.01,2013-10-27 07:02:00,
2013-10-27 03:08:00,35.4,29.9,29.95,WSW,248,0.0,0.0,80,0.00,,---,0.00,VWS V14.01,2013-10-27 07:08:00,
2013-10-27 03:13:00,35.4,29.9,29.95,WSW,248,0.0,0.0,80,0.00,,---,0.00,VWS V14.01,2013-10-27 07:13:00,
2013-10-27 03:18:00,35.4,29.9,29.95,WSW,248,0.0,0.0,80,0.00,,---,0.00,VWS V14.01,2013-10-27 07:18:00,
2013-10-27 03:23:00,35.7,30.1,29.95,WSW,248,0.0,0.0,80,0.00,,---,0.00,VWS V14.01,2013-10-27 07:23:00,
2013-10-27 03:28:00,35.7,30.1,29.95,WSW,248,0.0,0.0,80,0.00,,---,0.00,VWS V14.01,2013-10-27 07:28:00,
2013-10-27 03:33:00,35.7,30.1,29.95,WSW,248,0.0,0.0,80,0.00,,---,0.00,VWS V14.01,2013-10-27 07:33:00,
2013-10-27 03:38:00,35.7,30.1,29.95,WSW,248,0.0,0.0,80,0.00,,---,0.00,VWS V14.01,2013-10-27 07:38:00,
2013-10-27 03:43:00,35.9,30.3,29.95,WSW,248,0.0,0.0,80,0.00,,---,0.00,VWS V14.01,2013-10-27 07:43:00,
2013-10-27 03:48:00,35.9,30.3,29.95,WSW,248,0.0,0.0,80,0.00,,---,0.00,VWS V14.01,2013-10-27 07:48:00,
2013-10-27 03:53:00,36.1,30.5,29.95,WSW,248,0.0,0.0,80,0.00,,---,0.00,VWS V14.01,2013-10-27 07:53:00,
2013-10-27 03:58:00,36.1,30.5,29.95,WSW,248,0.0,0.0,80,0.00,,---,0.00,VWS V14.01,2013-10-27 07:58:00,
2013-10-27 04:04:00,36.1,-4.7,29.95,WSW,248,0.0,0.0,80,0.00,,---,0.00,VWS V14.01,2013-10-27 08:04:00,
2013-10-27 04:09:00,36.1,30.5,29.95,SW,225,0.0,0.0,80,0.00,,---,0.00,VWS V14.01,2013-10-27 08:09:00,
2013-10-27 04:14:00,36.3,30.7,29.95,SW,225,0.0,0.0,80,0.00,,---,0.00,VWS V14.01,2013-10-27 08:14:00,
2013-10-27 04:19:00,36.3,30.7,29.95,SW,225,0.0,0.0,80,0.00,,---,0.00,VWS V14.01,2013-10-27 08:19:00,
2013-10-27 04:24:00,36.3,30.7,29.95,SW,225,0.0,0.0,80,0.00,,---,0.00,VWS V14.01,2013-10-27 08:24:00,
2013-10-27 04:29:00,36.3,30.7,29.95,WSW,248,0.0,0.0,80,0.00,,---,0.00,VWS V14.01,2013-10-27 08:29:00,
2013-10-27 04:34:00,36.3,30.7,29.95,SW,225,0.0,0.0,80,0.00,,---,0.00,VWS V14.01,2013-10-27 08:34:00,
2013-10-27 04:39:00,36.5,30.9,29.95,SW,225,0.0,0.0,80,0.00,,---,0.00,VWS V14.01,2013-10-27 08:39:00,
2013-10-27 04:44:00,36.5,30.9,29.95,SW,225,0.0,0.0,80,0.00,,---,0.00,VWS V14.01,2013-10-27 08:44:00,
2013-10-27 04:49:00,36.5,30.9,29.95,SW,225,0.0,0.0,80,0.00,,---,0.00,VWS V14.01,2013-10-27 08:49:00,
2013-10-27 04:54:00,36.5,30.9,29.95,SSW,202,0.0,0.0,80,0.00,,---,0.00,VWS V14.01,2013-10-27 08:54:00,
2013-10-27 04:59:00,36.5,30.9,29.95,SSW,202,0.0,0.0,80,0.00,,---,0.00,VWS V14.01,2013-10-27 08:59:00,
2013-10-27 05:04:00,36.5,30.9,29.95,SW,225,0.0,0.0,80,0.00,,---,0.00,VWS V14.01,2013-10-27 09:04:00,
2013-10-27 05:09:00,36.5,30.9,29.95,SW,225,0.0,0.0,80,0.00,,---,0.00,VWS V14.01,2013-10-27 09:09:00,
2013-10-27 05:14:00,36.5,30.9,29.96,SW,225,0.0,0.0,80,0.00,,---,0.00,VWS V14.01,2013-10-27 09:14:00,
2013-10-27 05:19:00,36.5,30.6,29.96,SW,225,0.0,0.0,79,0.00,,---,0.00,VWS V14.01,2013-10-27 09:19:00,
2013-10-27 05:24:00,36.5,30.6,29.96,WSW,248,0.0,0.0,79,0.00,,---,0.00,VWS V14.01,2013-10-27 09:24:00,
2013-10-27 05:29:00,36.5,30.6,29.96,SW,225,0.0,0.0,79,0.00,,---,0.00,VWS V14.01,2013-10-27 09:29:00,
2013-10-27 05:34:00,36.5,30.6,29.96,SW,225,0.0,0.0,79,0.00,,---,0.00,VWS V14.01,2013-10-27 09:34:00,
2013-10-27 05:39:00,36.5,30.6,29.96,SSW,202,0.0,0.0,79,0.00,,---,0.00,VWS V14.01,2013-10-27 09:39:00,
2013-10-27 05:44:00,36.5,30.6,29.96,SSW,202,0.0,0.0,79,0.00,,---,0.00,VWS V14.01,2013-10-27 09:44:00,
2013-10-27 05:49:00,36.5,30.6,29.97,West,270,0.0,0.0,79,0.00,,---,0.00,VWS V14.01,2013-10-27 09:49:00,
2013-10-27 05:54:00,36.5,30.6,29.97,West,270,0.0,0.0,79,0.00,,---,0.00,VWS V14.01,2013-10-27 09:54:00,
2013-10-27 05:59:00,36.3,30.4,29.97,SW,225,0.0,0.0,79,0.00,,---,0.00,VWS V14.01,2013-10-27 09:59:00,
2013-10-27 06:04:00,36.3,30.4,29.97,WSW,248,0.0,0.0,79,0.00,,---,0.00,VWS V14.01,2013-10-27 10:04:00,
2013-10-27 06:09:00,36.3,30.4,29.97,WSW,248,0.0,0.0,79,0.00,,---,0.00,VWS V14.01,2013-10-27 10:09:00,
2013-10-27 06:14:00,36.3,30.4,29.96,WSW,248,0.0,0.0,79,0.00,,---,0.00,VWS V14.01,2013-10-27 10:14:00,
2013-10-27 06:19:00,36.3,30.4,29.96,WSW,248,0.0,0.0,79,0.00,,---,0.00,VWS V14.01,2013-10-27 10:19:00,
2013-10-27 06:24:00,36.3,30.4,29.97,WSW,248,0.0,0.0,79,0.00,,---,0.00,VWS V14.01,2013-10-27 10:24:00,
2013-10-27 06:29:00,36.3,30.4,29.97,WSW,248,0.0,0.0,79,0.00,,---,0.00,VWS V14.01,2013-10-27 10:29:00,
2013-10-27 06:34:00,36.1,30.2,29.97,WSW,248,0.0,0.0,79,0.00,,---,0.00,VWS V14.01,2013-10-27 10:34:00,
2013-10-27 06:39:00,36.1,30.2,29.97,WSW,248,0.0,0.0,79,0.00,,---,0.00,VWS V14.01,2013-10-27 10:39:00,
2013-10-27 06:44:00,35.9,30.0,29.97,WSW,248,0.0,0.0,79,0.00,,---,0.00,VWS V14.01,2013-10-27 10:44:00,
2013-10-27 06:49:00,35.9,30.0,29.97,SW,225,0.0,0.0,79,0.00,,---,0.00,VWS V14.01,2013-10-27 10:49:00,
2013-10-27 06:54:00,35.7,29.8,29.98,WSW,248,0.0,0.0,79,0.00,,---,0.00,VWS V14.01,2013-10-27 10:54:00,
2013-10-27 06:59:00,35.7,29.8,29.98,West,270,0.0,0.0,79,0.00,,---,0.00,VWS V14.01,2013-10-27 10:59:00,
2013-10-27 07:04:00,35.7,29.8,29.98,West,270,0.0,0.0,79,0.00,,---,0.00,VWS V14.01,2013-10-27 11:04:00,
2013-10-27 07:09:00,35.6,29.7,29.97,West,270,0.0,0.0,79,0.00,,---,0.00,VWS V14.01,2013-10-27 11:09:00,
2013-10-27 07:14:00,35.4,29.9,29.98,West,270,0.0,0.0,80,0.00,,---,0.00,VWS V14.01,2013-10-27 11:14:00,
2013-10-27 07:19:00,35.4,29.9,29.97,West,270,0.0,0.0,80,0.00,,---,0.00,VWS V14.01,2013-10-27 11:19:00,
2013-10-27 07:24:00,35.4,29.9,29.98,West,270,0.0,0.0,80,0.00,,---,0.00,VWS V14.01,2013-10-27 11:24:00,
2013-10-27 07:29:00,35.2,29.7,29.98,WSW,248,0.0,0.0,80,0.00,,---,0.00,VWS V14.01,2013-10-27 11:29:00,
2013-10-27 07:34:00,35.2,29.7,29.98,SSW,202,0.0,0.0,80,0.00,,---,0.00,VWS V14.01,2013-10-27 11:34:00,
2013-10-27 07:39:00,35.2,30.0,29.98,SW,225,0.0,0.0,81,0.00,,---,0.00,VWS V14.01,2013-10-27 11:39:00,
2013-10-27 07:44:00,35.2,30.0,29.98,WSW,248,0.0,0.0,81,0.00,,---,0.00,VWS V14.01,2013-10-27 11:44:00,
2013-10-27 07:49:00,35.2,30.0,29.98,SSW,202,0.0,0.0,81,0.00,,---,0.00,VWS V14.01,2013-10-27 11:49:00,
2013-10-27 07:54:00,35.2,30.0,29.98,SSW,202,0.0,0.0,81,0.00,,---,0.00,VWS V14.01,2013-10-27 11:54:00,
2013-10-27 07:59:00,35.2,29.7,29.98,SW,225,0.0,0.0,80,0.00,,---,0.00,VWS V14.01,2013-10-27 11:59:00,
2013-10-27 08:04:00,35.2,29.7,29.98,WSW,248,0.0,0.0,80,0.00,,---,0.00,VWS V14.01,2013-10-27 12:04:00,
2013-10-27 08:09:00,35.2,29.7,29.98,SW,225,0.0,0.0,80,0.00,,---,0.00,VWS V14.01,2013-10-27 12:09:00,
2013-10-27 08:14:00,35.2,29.7,29.98,SSW,202,0.0,0.0,80,0.00,,---,0.00,VWS V14.01,2013-10-27 12:14:00,
2013-10-27 08:19:00,35.2,29.7,29.98,SSW,202,0.0,0.0,80,0.00,,---,0.00,VWS V14.01,2013-10-27 12:19:00,
2013-10-27 08:24:00,35.2,29.7,29.99,SSW,202,0.0,0.0,80,0.00,,---,0.00,VWS V14.01,2013-10-27 12:24:00,
2013-10-27 08:29:00,35.2,29.7,29.99,SSW,202,0.0,0.0,80,0.00,,---,0.00,VWS V14.01,2013-10-27 12:29:00,
2013-10-27 08:32:00,35.0,29.5,29.99,SSW,202,0.0,0.0,80,0.00,,---,0.00,VWS V14.01,2013-10-27 12:32:00,
2013-10-27 08:38:00,35.2,29.7,30.00,SSW,202,0.0,0.0,80,0.00,,---,0.00,VWS V14.01,2013-10-27 12:38:00,
2013-10-27 08:43:00,34.8,29.3,30.00,SSW,202,0.0,0.0,80,0.00,,---,0.00,VWS V14.01,2013-10-27 12:43:00,
2013-10-27 08:48:00,35.2,29.7,30.00,West,270,0.0,0.0,80,0.00,,---,0.00,VWS V14.01,2013-10-27 12:48:00,
2013-10-27 08:53:00,35.2,29.7,30.00,SW,225,0.0,0.0,80,0.00,,---,0.00,VWS V14.01,2013-10-27 12:53:00,
2013-10-27 08:58:00,35.2,29.4,30.00,SSW,202,0.0,0.0,79,0.00,,---,0.00,VWS V14.01,2013-10-27 12:58:00,
2013-10-27 09:03:00,35.2,29.4,30.00,SW,225,0.0,0.0,79,0.00,,---,0.00,VWS V14.01,2013-10-27 13:03:00,
2013-10-27 09:08:00,35.4,29.2,30.00,SW,225,0.0,0.0,78,0.00,,---,0.00,VWS V14.01,2013-10-27 13:08:00,
2013-10-27 09:13:00,35.4,29.2,30.00,West,270,0.0,0.0,78,0.00,,---,0.00,VWS V14.01,2013-10-27 13:13:00,
2013-10-27 09:18:00,35.4,29.2,30.00,WSW,248,0.0,0.0,78,0.00,,---,0.00,VWS V14.01,2013-10-27 13:18:00,
2013-10-27 09:23:00,35.4,28.9,30.00,WSW,248,0.0,0.0,77,0.00,,---,0.00,VWS V14.01,2013-10-27 13:23:00,
2013-10-27 09:28:00,35.7,29.2,30.00,WSW,248,0.0,0.0,77,0.00,,---,0.00,VWS V14.01,2013-10-27 13:28:00,
2013-10-27 09:33:00,35.9,29.4,30.00,SW,225,0.0,0.0,77,0.00,,---,0.00,VWS V14.01,2013-10-27 13:33:00,
2013-10-27 09:38:00,36.3,29.5,30.00,WSW,248,0.0,0.0,76,0.00,,---,0.00,VWS V14.01,2013-10-27 13:38:00,
2013-10-27 09:43:00,36.5,29.7,30.01,SW,225,0.0,0.0,76,0.00,,---,0.00,VWS V14.01,2013-10-27 13:43:00,
2013-10-27 09:48:00,36.8,29.3,30.01,SW,225,0.0,0.0,74,0.00,,---,0.00,VWS V14.01,2013-10-27 13:48:00,
2013-10-27 09:53:00,37.2,30.0,30.01,West,270,0.0,0.0,75,0.00,,---,0.00,VWS V14.01,2013-10-27 13:53:00,
2013-10-27 09:58:00,37.5,30.0,30.01,West,270,0.0,0.0,74,0.00,,---,0.00,VWS V14.01,2013-10-27 13:58:00,
2013-10-27 10:03:00,37.7,29.8,30.01,West,270,0.0,0.0,73,0.00,,---,0.00,VWS V14.01,2013-10-27 14:03:00,
2013-10-27 10:08:00,38.1,29.9,30.01,West,270,0.0,0.0,72,0.00,,---,0.00,VWS V14.01,2013-10-27 14:08:00,
2013-10-27 10:13:00,38.4,29.8,30.01,WSW,248,0.0,0.0,71,0.00,,---,0.00,VWS V14.01,2013-10-27 14:13:00,
2013-10-27 10:18:00,38.8,29.9,30.01,WSW,248,0.0,0.0,70,0.00,,---,0.00,VWS V14.01,2013-10-27 14:18:00,
2013-10-27 10:23:00,39.3,30.0,30.01,West,270,0.0,0.0,69,0.00,,---,0.00,VWS V14.01,2013-10-27 14:23:00,
2013-10-27 10:28:00,39.5,29.8,30.01,SSW,202,0.0,0.0,68,0.00,,---,0.00,VWS V14.01,2013-10-27 14:28:00,
2013-10-27 10:33:00,39.7,29.7,30.01,SSW,202,0.0,0.0,67,0.00,,---,0.00,VWS V14.01,2013-10-27 14:33:00,
2013-10-27 10:38:00,39.9,29.9,30.01,SSW,202,0.0,0.0,67,0.00,,---,0.00,VWS V14.01,2013-10-27 14:38:00,
2013-10-27 10:43:00,40.1,30.0,30.01,WSW,248,0.0,0.0,67,0.00,,---,0.00,VWS V14.01,2013-10-27 14:43:00,
2013-10-27 10:48:00,40.2,30.1,30.01,WSW,248,0.0,0.0,67,0.00,,---,0.00,VWS V14.01,2013-10-27 14:48:00,
2013-10-27 10:53:00,40.6,30.5,30.00,SSW,202,0.0,0.0,67,0.00,,---,0.00,VWS V14.01,2013-10-27 14:53:00,
2013-10-27 10:58:00,40.8,30.7,30.00,WSW,248,0.0,0.0,67,0.00,,---,0.00,VWS V14.01,2013-10-27 14:58:00,
2013-10-27 11:03:00,40.8,30.7,30.00,WSW,248,0.0,0.0,67,0.00,,---,0.00,VWS V14.01,2013-10-27 15:03:00,
2013-10-27 11:08:00,41.1,30.2,30.00,WSW,248,0.0,0.0,65,0.00,,---,0.00,VWS V14.01,2013-10-27 15:08:00,
2013-10-27 11:13:00,41.3,30.4,30.00,SW,225,1.1,1.1,65,0.00,,---,0.00,VWS V14.01,2013-10-27 15:13:00,
2013-10-27 11:18:00,41.5,30.6,30.01,WSW,248,0.0,0.0,65,0.00,,---,0.00,VWS V14.01,2013-10-27 15:18:00,
2013-10-27 11:23:00,41.9,31.0,30.01,SSW,202,0.0,0.0,65,0.00,,---,0.00,VWS V14.01,2013-10-27 15:23:00,
2013-10-27 11:28:00,42.0,30.7,30.01,SSW,202,0.0,0.0,64,0.00,,---,0.00,VWS V14.01,2013-10-27 15:28:00,
2013-10-27 11:33:00,42.0,30.7,30.01,SW,225,0.0,0.0,64,0.00,,---,0.00,VWS V14.01,2013-10-27 15:33:00,
2013-10-27 11:38:00,42.0,31.1,30.00,West,270,0.0,0.0,65,0.00,,---,0.00,VWS V14.01,2013-10-27 15:38:00,
2013-10-27 11:43:00,42.4,31.1,30.00,SSW,202,0.0,0.0,64,0.00,,---,0.00,VWS V14.01,2013-10-27 15:43:00,
2013-10-27 11:48:00,42.6,31.3,30.00,SW,225,0.0,0.0,64,0.00,,---,0.00,VWS V14.01,2013-10-27 15:48:00,
2013-10-27 11:53:00,42.9,31.2,30.00,West,270,0.0,0.0,63,0.00,,---,0.00,VWS V14.01,2013-10-27 15:53:00,
2013-10-27 11:58:00,42.9,31.2,30.00,SSW,202,0.0,0.0,63,0.00,,---,0.00,VWS V14.01,2013-10-27 15:58:00,
2013-10-27 12:03:00,43.3,31.6,30.00,SSW,202,4.9,4.9,63,0.00,,---,0.00,VWS V14.01,2013-10-27 16:03:00,
2013-10-27 12:08:00,43.7,31.1,30.00,SSW,202,2.4,2.4,61,0.00,,---,0.00,VWS V14.01,2013-10-27 16:08:00,
2013-10-27 12:13:00,43.8,30.8,30.00,SW,225,0.0,0.0,60,0.00,,---,0.00,VWS V14.01,2013-10-27 16:13:00,
2013-10-27 12:18:00,44.0,31.4,30.00,SW,225,0.0,0.0,61,0.00,,---,0.00,VWS V14.01,2013-10-27 16:18:00,
2013-10-27 12:23:00,44.4,31.4,30.00,SSW,202,4.0,4.0,60,0.00,,---,0.00,VWS V14.01,2013-10-27 16:23:00,
2013-10-27 12:28:00,44.6,31.6,30.00,WSW,248,0.0,0.0,60,0.00,,---,0.00,VWS V14.01,2013-10-27 16:28:00,
2013-10-27 12:33:00,44.7,31.3,30.00,SW,225,0.0,0.0,59,0.00,,---,0.00,VWS V14.01,2013-10-27 16:33:00,
2013-10-27 12:38:00,44.9,31.5,30.00,SW,225,5.1,6.7,59,0.00,,---,0.00,VWS V14.01,2013-10-27 16:38:00,
2013-10-27 12:43:00,45.1,30.8,30.00,WSW,248,4.2,4.2,57,0.00,,---,0.00,VWS V14.01,2013-10-27 16:43:00,
2013-10-27 12:48:00,45.1,30.8,30.00,WSW,248,0.0,0.0,57,0.00,,---,0.00,VWS V14.01,2013-10-27 16:48:00,
2013-10-27 12:53:00,45.3,31.0,30.00,SSW,202,5.5,5.5,57,0.00,,---,0.00,VWS V14.01,2013-10-27 16:53:00,
2013-10-27 12:58:00,45.5,31.2,30.00,SW,225,3.1,3.1,57,0.00,,---,0.00,VWS V14.01,2013-10-27 16:58:00,
2013-10-27 13:03:00,45.5,31.2,29.99,SSW,202,0.0,0.0,57,0.00,,---,0.00,VWS V14.01,2013-10-27 17:03:00,
2013-10-27 13:08:00,46.0,31.6,29.98,West,270,0.0,7.6,57,0.00,,---,0.00,VWS V14.01,2013-10-27 17:08:00,
2013-10-27 13:13:00,46.0,31.6,29.98,WSW,248,4.6,4.6,57,0.00,,---,0.00,VWS V14.01,2013-10-27 17:13:00,
2013-10-27 13:18:00,46.2,32.2,29.97,SW,225,0.0,0.0,58,0.00,,---,0.00,VWS V14.01,2013-10-27 17:18:00,
2013-10-27 13:23:00,46.4,31.6,29.97,SW,225,7.3,7.3,56,0.00,,---,0.00,VWS V14.01,2013-10-27 17:23:00,
2013-10-27 13:28:00,46.4,32.0,29.97,WSW,248,2.9,2.9,57,0.00,,---,0.00,VWS V14.01,2013-10-27 17:28:00,
2013-10-27 13:33:00,46.5,32.1,29.97,SSW,202,4.9,4.9,57,0.00,,---,0.00,VWS V14.01,2013-10-27 17:33:00,
2013-10-27 13:38:00,46.2,31.4,29.97,SW,225,4.0,4.0,56,0.00,,---,0.00,VWS V14.01,2013-10-27 17:38:00,
2013-10-27 13:43:00,46.2,31.4,29.96,SSW,202,0.0,0.0,56,0.00,,---,0.00,VWS V14.01,2013-10-27 17:43:00,
2013-10-27 13:48:00,46.5,32.1,29.96,West,270,0.0,0.0,57,0.00,,---,0.00,VWS V14.01,2013-10-27 17:48:00,
2013-10-27 13:54:00,46.7,32.3,29.96,SW,225,0.0,0.0,57,0.00,,---,0.00,VWS V14.01,2013-10-27 17:54:00,
2013-10-27 13:59:00,47.1,32.7,29.95,WSW,248,0.0,0.0,57,0.00,,---,0.00,VWS V14.01,2013-10-27 17:59:00,
2013-10-27 14:04:00,47.3,32.8,29.95,South,180,0.0,2.4,57,0.00,,---,0.00,VWS V14.01,2013-10-27 18:04:00,
2013-10-27 14:09:00,47.3,32.4,29.95,SSW,202,7.8,7.8,56,0.00,,---,0.00,VWS V14.01,2013-10-27 18:09:00,
2013-10-27 14:14:00,47.3,32.4,29.95,SW,225,6.7,6.7,56,0.00,,---,0.00,VWS V14.01,2013-10-27 18:14:00,
2013-10-27 14:19:00,47.4,33.0,29.95,SSE,158,5.8,8.2,57,0.00,,---,0.00,VWS V14.01,2013-10-27 18:19:00,
2013-10-27 14:24:00,47.8,32.9,29.95,SW,225,5.8,5.8,56,0.00,,---,0.00,VWS V14.01,2013-10-27 18:24:00,
2013-10-27 14:29:00,48.0,33.1,29.95,South,180,11.4,11.4,56,0.00,,---,0.00,VWS V14.01,2013-10-27 18:29:00,
2013-10-27 14:34:00,48.0,32.6,29.94,SW,225,2.0,2.0,55,0.00,,---,0.00,VWS V14.01,2013-10-27 18:34:00,
2013-10-27 14:39:00,48.0,33.1,29.94,WSW,248,9.6,9.6,56,0.00,,---,0.00,VWS V14.01,2013-10-27 18:39:00,
2013-10-27 14:44:00,48.0,33.1,29.94,West,270,2.0,6.4,56,0.00,,---,0.00,VWS V14.01,2013-10-27 18:44:00,
2013-10-27 14:49:00,48.0,33.1,29.94,West,270,5.8,8.0,56,0.00,,---,0.00,VWS V14.01,2013-10-27 18:49:00,
2013-10-27 14:54:00,48.0,33.1,29.94,West,270,5.3,5.3,56,0.00,,---,0.00,VWS V14.01,2013-10-27 18:54:00,
2013-10-27 14:59:00,48.0,33.5,29.93,WSW,248,0.0,0.0,57,0.00,,---,0.00,VWS V14.01,2013-10-27 18:59:00,
2013-10-27 15:04:00,48.0,33.1,29.93,West,270,6.9,6.9,56,0.00,,---,0.00,VWS V14.01,2013-10-27 19:04:00,
2013-10-27 15:09:00,48.3,33.3,29.93,SSW,202,7.6,7.6,56,0.00,,---,0.00,VWS V14.01,2013-10-27 19:09:00,
2013-10-27 15:14:00,48.5,33.5,29.93,WSW,248,6.7,6.7,56,0.00,,---,0.00,VWS V14.01,2013-10-27 19:14:00,
2013-10-27 15:19:00,48.7,33.3,29.93,SSW,202,0.0,5.8,55,0.00,,---,0.00,VWS V14.01,2013-10-27 19:19:00,
2013-10-27 15:24:00,49.1,33.2,29.93,SSW,202,6.9,6.9,54,0.00,,---,0.00,VWS V14.01,2013-10-27 19:24:00,
2013-10-27 15:29:00,49.2,33.3,29.93,WSW,248,3.1,10.2,54,0.00,,---,0.00,VWS V14.01,2013-10-27 19:29:00,
2013-10-27 15:34:00,49.6,33.2,29.93,SW,225,11.8,11.8,53,0.00,,---,0.00,VWS V14.01,2013-10-27 19:34:00,
2013-10-27 15:39:00,49.8,33.4,29.92,SSW,202,7.1,7.1,53,0.00,,---,0.00,VWS V14.01,2013-10-27 19:39:00,
2013-10-27 15:44:00,50.1,33.2,29.92,WSW,248,6.9,6.9,52,0.00,,---,0.00,VWS V14.01,2013-10-27 19:44:00,
2013-10-27 15:49:00,50.3,33.8,29.92,WSW,248,3.5,6.9,53,0.00,,---,0.00,VWS V14.01,2013-10-27 19:49:00,
2013-10-27 15:54:00,50.7,33.7,29.92,SW,225,5.5,5.5,52,0.00,,---,0.00,VWS V14.01,2013-10-27 19:54:00,
2013-10-27 15:59:00,50.5,33.5,29.92,SW,225,5.5,11.6,52,0.00,,---,0.00,VWS V14.01,2013-10-27 19:59:00,
2013-10-27 16:04:00,50.5,33.1,29.92,SW,225,2.2,3.8,51,0.00,,---,0.00,VWS V14.01,2013-10-27 20:04:00,
2013-10-27 16:09:00,50.7,33.2,29.92,SW,225,0.0,0.0,51,0.00,,---,0.00,VWS V14.01,2013-10-27 20:09:00,
2013-10-27 16:14:00,51.4,33.9,29.92,West,270,6.2,7.8,51,0.00,,---,0.00,VWS V14.01,2013-10-27 20:14:00,
2013-10-27 16:19:00,51.4,33.4,29.92,SW,225,3.3,3.3,50,0.00,,---,0.00,VWS V14.01,2013-10-27 20:19:00,
2013-10-27 16:24:00,51.4,33.4,29.92,SSW,202,8.5,8.5,50,0.00,,---,0.00,VWS V14.01,2013-10-27 20:24:00,
2013-10-27 16:29:00,51.2,33.2,29.92,SW,225,0.8,8.7,50,0.00,,---,0.00,VWS V14.01,2013-10-27 20:29:00,
2013-10-27 16:34:00,51.6,33.1,29.91,SSW,202,8.2,8.2,49,0.00,,---,0.00,VWS V14.01,2013-10-27 20:34:00,
2013-10-27 16:39:00,51.6,33.1,29.91,SW,225,7.8,7.8,49,0.00,,---,0.00,VWS V14.01,2013-10-27 20:39:00,
2013-10-27 16:44:00,51.8,33.3,29.91,West,270,6.7,7.8,49,0.00,,---,0.00,VWS V14.01,2013-10-27 20:44:00,
2013-10-27 16:49:00,51.9,32.8,29.91,WSW,248,4.0,4.0,48,0.00,,---,0.00,VWS V14.01,2013-10-27 20:49:00,
2013-10-27 16:54:00,51.8,32.8,29.92,SSW,202,4.0,4.0,48,0.00,,---,0.00,VWS V14.01,2013-10-27 20:54:00,
2013-10-27 16:59:00,51.9,33.4,29.92,SW,225,10.5,10.5,49,0.00,,---,0.00,VWS V14.01,2013-10-27 20:59:00,
2013-10-27 17:04:00,51.9,33.4,29.92,WSW,248,3.5,3.5,49,0.00,,---,0.00,VWS V14.01,2013-10-27 21:04:00,
2013-10-27 17:09:00,52.1,33.5,29.92,SW,225,8.2,8.2,49,0.00,,---,0.00,VWS V14.01,2013-10-27 21:09:00,
2013-10-27 17:14:00,52.3,33.2,29.92,SSW,202,10.2,10.2,48,0.00,,---,0.00,VWS V14.01,2013-10-27 21:14:00,
2013-10-27 17:19:00,52.1,33.0,29.92,WSW,248,0.0,0.0,48,0.00,,---,0.00,VWS V14.01,2013-10-27 21:19:00,
2013-10-27 17:24:00,51.9,33.4,29.92,SW,225,1.7,1.7,49,0.00,,---,0.00,VWS V14.01,2013-10-27 21:24:00,
2013-10-27 17:29:00,51.4,32.9,29.92,SW,225,0.0,7.6,49,0.00,,---,0.00,VWS V14.01,2013-10-27 21:29:00,
2013-10-27 17:34:00,51.0,33.0,29.92,WSW,248,6.7,6.7,50,0.00,,---,0.00,VWS V14.01,2013-10-27 21:34:00,
2013-10-27 17:39:00,51.0,33.0,29.92,SSW,202,4.9,4.9,50,0.00,,---,0.00,VWS V14.01,2013-10-27 21:39:00,
2013-10-27 17:44:00,51.0,33.0,29.91,West,270,0.0,5.8,50,0.00,,---,0.00,VWS V14.01,2013-10-27 21:44:00,
2013-10-27 17:49:00,51.0,33.0,29.91,SW,225,4.2,4.2,50,0.00,,---,0.00,VWS V14.01,2013-10-27 21:49:00,
2013-10-27 17:54:00,51.0,33.0,29.92,NE,45,0.0,0.0,50,0.00,,---,0.00,VWS V14.01,2013-10-27 21:54:00,
2013-10-27 17:59:00,51.0,33.0,29.91,WSW,248,0.0,2.6,50,0.00,,---,0.00,VWS V14.01,2013-10-27 21:59:00,
2013-10-27 18:04:00,50.9,33.4,29.92,WSW,248,2.0,2.0,51,0.00,,---,0.00,VWS V14.01,2013-10-27 22:04:00,
2013-10-27 18:09:00,50.9,32.9,29.92,SW,225,5.3,5.3,50,0.00,,---,0.00,VWS V14.01,2013-10-27 22:09:00,
2013-10-27 18:14:00,50.7,32.8,29.91,SW,225,8.7,8.7,50,0.00,,---,0.00,VWS V14.01,2013-10-27 22:14:00,
2013-10-27 18:19:00,50.7,32.8,29.92,SSW,202,4.0,4.0,50,0.00,,---,0.00,VWS V14.01,2013-10-27 22:19:00,
2013-10-27 18:24:00,50.5,32.6,29.91,SW,225,1.5,1.5,50,0.00,,---,0.00,VWS V14.01,2013-10-27 22:24:00,
2013-10-27 18:29:00,50.1,32.2,29.91,SW,225,6.9,7.6,50,0.00,,---,0.00,VWS V14.01,2013-10-27 22:29:00,
2013-10-27 18:34:00,50.1,32.7,29.92,SW,225,1.5,1.5,51,0.00,,---,0.00,VWS V14.01,2013-10-27 22:34:00,
2013-10-27 18:39:00,49.8,32.4,29.92,WSW,248,4.2,4.2,51,0.00,,---,0.00,VWS V14.01,2013-10-27 22:39:00,
2013-10-27 18:44:00,49.8,32.4,29.92,SW,225,0.0,5.1,51,0.00,,---,0.00,VWS V14.01,2013-10-27 22:44:00,
2013-10-27 18:49:00,49.6,32.2,29.92,SW,225,0.0,0.0,51,0.00,,---,0.00,VWS V14.01,2013-10-27 22:49:00,
2013-10-27 18:54:00,49.6,32.2,29.92,West,270,2.2,2.2,51,0.00,,---,0.00,VWS V14.01,2013-10-27 22:54:00,
2013-10-27 18:59:00,49.2,31.9,29.92,SW,225,2.4,2.4,51,0.00,,---,0.00,VWS V14.01,2013-10-27 22:59:00,
2013-10-27 19:04:00,49.2,31.9,29.92,WSW,248,0.0,0.0,51,0.00,,---,0.00,VWS V14.01,2013-10-27 23:04:00,
2013-10-27 19:09:00,49.2,32.3,29.92,SW,225,0.0,0.0,52,0.00,,---,0.00,VWS V14.01,2013-10-27 23:09:00,
2013-10-27 19:14:00,49.1,32.2,29.92,SW,225,0.0,0.0,52,0.00,,---,0.00,VWS V14.01,2013-10-27 23:14:00,
2013-10-27 19:19:00,48.9,32.1,29.92,West,270,0.0,0.0,52,0.00,,---,0.00,VWS V14.01,2013-10-27 23:19:00,
2013-10-27 19:24:00,48.9,32.5,29.92,SSW,202,0.0,0.0,53,0.00,,---,0.00,VWS V14.01,2013-10-27 23:24:00,
2013-10-27 19:29:00,48.7,32.3,29.92,SW,225,2.4,2.4,53,0.00,,---,0.00,VWS V14.01,2013-10-27 23:29:00,
2013-10-27 19:34:00,48.5,32.2,29.92,SW,225,0.0,0.0,53,0.00,,---,0.00,VWS V14.01,2013-10-27 23:34:00,
2013-10-27 19:39:00,48.5,32.6,29.92,SW,225,0.0,0.0,54,0.00,,---,0.00,VWS V14.01,2013-10-27 23:39:00,
2013-10-27 19:44:00,48.3,32.4,29.92,SW,225,0.0,0.0,54,0.00,,---,0.00,VWS V14.01,2013-10-27 23:44:00,
2013-10-27 19:49:00,48.0,32.2,29.92,West,270,0.0,0.0,54,0.00,,---,0.00,VWS V14.01,2013-10-27 23:49:00,
2013-10-27 19:54:00,48.0,32.6,29.92,SSW,202,0.0,0.0,55,0.00,,---,0.00,VWS V14.01,2013-10-27 23:54:00,
2013-10-27 19:59:00,47.6,32.2,29.92,West,270,5.5,5.5,55,0.00,,---,0.00,VWS V14.01,2013-10-27 23:59:00,
2013-10-27 20:04:00,47.4,32.1,29.92,SW,225,0.0,0.0,55,0.00,,---,0.00,VWS V14.01,2013-10-28 00:04:00,
2013-10-27 20:09:00,47.3,32.4,29.92,SSW,202,0.0,0.0,56,0.00,,---,0.00,VWS V14.01,2013-10-28 00:09:00,
2013-10-27 20:14:00,46.9,32.0,29.93,WSW,248,0.0,0.0,56,0.00,,---,0.00,VWS V14.01,2013-10-28 00:14:00,
2013-10-27 20:19:00,46.7,31.9,29.93,SW,225,0.0,0.0,56,0.00,,---,0.00,VWS V14.01,2013-10-28 00:19:00,
2013-10-27 20:24:00,46.5,31.7,29.93,SW,225,0.0,0.0,56,0.00,,---,0.00,VWS V14.01,2013-10-28 00:24:00,
2013-10-27 20:29:00,46.2,31.8,29.93,SW,225,0.0,0.0,57,0.00,,---,0.00,VWS V14.01,2013-10-28 00:29:00,
2013-10-27 20:34:00,46.2,31.8,29.93,SW,225,0.0,0.0,57,0.00,,---,0.00,VWS V14.01,2013-10-28 00:34:00,
2013-10-27 20:39:00,46.0,31.6,29.93,SW,225,0.0,0.0,57,0.00,,---,0.00,VWS V14.01,2013-10-28 00:39:00,
2013-10-27 20:44:00,45.6,31.7,29.94,SW,225,0.0,0.0,58,0.00,,---,0.00,VWS V14.01,2013-10-28 00:44:00,
2013-10-27 20:49:00,45.6,31.7,29.94,SW,225,0.0,0.0,58,0.00,,---,0.00,VWS V14.01,2013-10-28 00:49:00,
2013-10-27 20:54:00,45.5,31.6,29.94,SW,225,0.0,0.0,58,0.00,,---,0.00,VWS V14.01,2013-10-28 00:54:00,
2013-10-27 20:59:00,45.3,31.8,29.94,SSW,202,0.0,0.0,59,0.00,,---,0.00,VWS V14.01,2013-10-28 00:59:00,
2013-10-27 21:04:00,45.1,31.6,29.94,SSW,202,0.0,0.0,59,0.00,,---,0.00,VWS V14.01,2013-10-28 01:04:00,
2013-10-27 21:09:00,45.1,31.6,29.94,WSW,248,0.0,0.0,59,0.00,,---,0.00,VWS V14.01,2013-10-28 01:09:00,
2013-10-27 21:14:00,45.3,31.8,29.94,SW,225,0.0,0.0,59,0.00,,---,0.00,VWS V14.01,2013-10-28 01:14:00,
2013-10-27 21:19:00,45.3,32.2,29.94,SSW,202,0.0,0.0,60,0.00,,---,0.00,VWS V14.01,2013-10-28 01:19:00,
2013-10-27 21:24:00,45.3,32.2,29.94,SSW,202,0.0,0.0,60,0.00,,---,0.00,VWS V14.01,2013-10-28 01:24:00,
2013-10-27 21:29:00,45.3,32.2,29.94,SW,225,0.0,0.0,60,0.00,,---,0.00,VWS V14.01,2013-10-28 01:29:00,
2013-10-27 21:34:00,45.3,32.2,29.95,West,270,0.0,0.0,60,0.00,,---,0.00,VWS V14.01,2013-10-28 01:34:00,
2013-10-27 21:39:00,45.3,32.2,29.95,West,270,0.0,0.0,60,0.00,,---,0.00,VWS V14.01,2013-10-28 01:39:00,
2013-10-27 21:44:00,45.3,32.2,29.96,WSW,248,0.0,0.0,60,0.00,,---,0.00,VWS V14.01,2013-10-28 01:44:00,
2013-10-27 21:49:00,45.3,32.2,29.96,West,270,0.0,0.0,60,0.00,,---,0.00,VWS V14.01,2013-10-28 01:49:00,
2013-10-27 21:54:00,45.3,32.2,29.96,WSW,248,0.0,0.0,60,0.00,,---,0.00,VWS V14.01,2013-10-28 01:54:00,
2013-10-27 21:59:00,45.3,32.2,29.96,West,270,0.0,0.0,60,0.00,,---,0.00,VWS V14.01,2013-10-28 01:59:00,
2013-10-27 22:04:00,45.3,32.2,29.97,WSW,248,0.0,0.0,60,0.00,,---,0.00,VWS V14.01,2013-10-28 02:04:00,
2013-10-27 22:09:00,45.3,32.2,29.96,SW,225,0.0,0.0,60,0.00,,---,0.00,VWS V14.01,2013-10-28 02:09:00,
2013-10-27 22:14:00,45.3,32.2,29.97,SW,225,0.0,0.0,60,0.00,,---,0.00,VWS V14.01,2013-10-28 02:14:00,
2013-10-27 22:19:00,45.3,32.2,29.97,West,270,0.0,0.0,60,0.00,,---,0.00,VWS V14.01,2013-10-28 02:19:00,
2013-10-27 22:24:00,45.3,32.2,29.97,WSW,248,0.0,0.0,60,0.00,,---,0.00,VWS V14.01,2013-10-28 02:24:00,
2013-10-27 22:29:00,45.3,32.7,29.97,WSW,248,0.0,0.0,61,0.00,,---,0.00,VWS V14.01,2013-10-28 02:29:00,
2013-10-27 22:34:00,45.3,32.7,29.97,WSW,248,0.0,0.0,61,0.00,,---,0.00,VWS V14.01,2013-10-28 02:34:00,
2013-10-27 22:39:00,45.3,32.7,29.97,West,270,0.0,0.0,61,0.00,,---,0.00,VWS V14.01,2013-10-28 02:39:00,
2013-10-27 22:44:00,45.1,32.5,29.97,SW,225,0.0,0.0,61,0.00,,---,0.00,VWS V14.01,2013-10-28 02:44:00,
2013-10-27 22:49:00,45.1,32.5,29.98,SW,225,0.0,0.0,61,0.00,,---,0.00,VWS V14.01,2013-10-28 02:49:00,
2013-10-27 22:54:00,45.1,32.5,29.98,SSW,202,0.0,0.0,61,0.00,,---,0.00,VWS V14.01,2013-10-28 02:54:00,
2013-10-27 22:59:00,45.1,32.5,29.98,SW,225,0.0,0.0,61,0.00,,---,0.00,VWS V14.01,2013-10-28 02:59:00,
2013-10-27 23:04:00,45.1,32.5,29.98,SW,225,0.0,0.0,61,0.00,,---,0.00,VWS V14.01,2013-10-28 03:04:00,
2013-10-27 23:09:00,44.9,32.3,29.98,SW,225,0.0,0.0,61,0.00,,---,0.00,VWS V14.01,2013-10-28 03:09:00,
2013-10-27 23:14:00,44.9,32.3,29.98,SW,225,0.0,0.0,61,0.00,,---,0.00,VWS V14.01,2013-10-28 03:14:00,
2013-10-27 23:19:00,44.9,32.3,29.98,SW,225,0.0,0.0,61,0.00,,---,0.00,VWS V14.01,2013-10-28 03:19:00,
2013-10-27 23:24:00,44.9,32.7,29.98,SW,225,0.0,0.0,62,0.00,,---,0.00,VWS V14.01,2013-10-28 03:24:00,
2013-10-27 23:29:00,44.7,32.5,29.98,SW,225,0.0,0.0,62,0.00,,---,0.00,VWS V14.01,2013-10-28 03:29:00,
2013-10-27 23:34:00,44.7,32.5,29.98,SW,225,0.0,0.0,62,0.00,,---,0.00,VWS V14.01,2013-10-28 03:34:00,
2013-10-27 23:39:00,44.4,32.2,29.99,SW,225,0.0,0.0,62,0.00,,---,0.00,VWS V14.01,2013-10-28 03:39:00,
2013-10-27 23:44:00,44.4,32.6,29.99,SW,225,0.0,0.0,63,0.00,,---,0.00,VWS V14.01,2013-10-28 03:44:00,
2013-10-27 23:49:00,44.4,32.6,29.99,SW,225,0.0,0.0,63,0.00,,---,0.00,VWS V14.01,2013-10-28 03:49:00,
2013-10-27 23:54:00,44.4,32.6,29.99,SSW,202,0.0,0.0,63,0.00,,---,0.00,VWS V14.01,2013-10-28 03:54:00,
2013-10-27 23:59:00,44.2,32.4,29.99,SSW,202,0.0,0.0,63,0.00,,---,0.00,VWS V14.01,2013-10-28 03:59:00,